Location: Unspecified
(0.0000°N, 0.0000°E)
Time: 06:26:14
(UTC+00:00)

USA 264 DEB - Visible Passes

Search period start: 08 June 2023 00:00
Search period end: 18 June 2023 00:00
Orbit: 1019 x 1192 km, 63.4° (Epoch: 22 May)

Date Brightness Start Highest point End Pass type
(mag) Time Alt. Az. Time Alt. Az. Time Alt. Az.
08 Jun ? 19:44:37 10° NW 19:51:49 50° WSW 19:56:38 22° S visible
09 Jun ? 18:59:29 10° NNW 19:06:59 89° WSW 19:14:07 12° SSE visible
10 Jun ? 18:14:57 10° N 18:22:10 52° ENE 18:29:24 10° SE visible
10 Jun ? 20:07:57 10° WNW 20:12:55 19° WSW 20:17:55 10° SSW visible
11 Jun ? 19:21:22 10° NW 19:28:02 35° WSW 19:34:45 10° S visible
12 Jun ? 05:10:48 10° SSE 05:15:01 18° ESE 05:19:12 10° ENE visible
12 Jun ? 18:35:49 10° NNW 18:43:12 64° WSW 18:50:37 10° SSE visible
13 Jun ? 19:46:21 10° W 19:49:12 12° WSW 19:52:04 10° SW visible
14 Jun ? 05:29:41 10° S 05:36:05 51° ESE 05:42:25 10° NE visible
14 Jun ? 18:58:26 10° WNW 19:04:17 25° WSW 19:10:09 10° SSW visible
15 Jun ? 04:45:51 10° SSE 04:51:16 26° ESE 04:56:36 10° ENE visible
16 Jun ? 04:03:33 10° SE 04:06:22 13° ESE 04:09:10 10° E visible
17 Jun ? 05:05:40 10° SSW 05:12:16 76° ESE 05:18:51 10° NNE visible
17 Jun ? 18:36:03 10° WNW 18:40:32 17° WSW 18:45:03 10° SSW visible
